Date String (YYYY-MM-DD hh:mm:ss) UTC,Instrument flags,Ambient pressure (hPa),Sample flow (lpm),Bypass flow (lpm),Sample temperature (°C),Ambient temperature (°C),ASC tube jacket temperature (°C),LED temperature (°C),Box temperature (°C),Sample RH (%),Span deviation,Mass concentration (μg/m³),Mass concentration (μg/m³),Mass concentration (μg/m³)
DateTimeUTC,F1_M11,P_M11,Q1_M11,Q2_M11,T1_M11,T2_M11,T3_M11,T4_M11,T5_M11,U1_M11,ZSPAN_M11,X0_M11,X2_M11,X1_M11
2022-06-29 07:00:00,,0829.4,5.00,0.00,29.5,28.3,00.0,38.2,31.4,16.3,0000.0,0008.80,0003.85,0003.46
2022-06-29 07:01:00,,0829.2,5.01,0.00,29.5,27.6,00.0,38.1,31.2,16.4,0000.0,0008.76,0003.85,0003.46
2022-06-29 07:02:00,,0829.2,5.00,0.00,29.4,27.4,00.0,38.1,31.1,16.6,0000.0,0008.50,0003.81,0003.45
2022-06-29 07:03:00,,0829.5,4.99,0.00,29.4,27.4,00.0,38.1,31.1,16.6,0000.0,0008.53,0003.82,0003.45
2022-06-29 07:04:00,,0829.3,5.00,0.00,29.3,27.5,00.0,38.1,31.1,16.4,0000.0,0008.11,0003.82,0003.45
2022-06-29 07:05:00,,0829.3,5.00,0.00,29.3,27.6,00.0,38.1,31.1,16.6,0000.0,0007.96,0003.81,0003.43
2022-06-29 07:06:00,,0829.3,5.00,0.00,29.3,27.7,00.0,38.1,31.2,16.5,0000.0,0008.64,0003.84,0003.44
2022-06-29 07:07:00,,0829.3,5.01,0.00,29.3,27.9,00.0,38.1,31.2,16.5,0000.0,0008.47,0003.84,0003.43
2022-06-29 07:08:00,,0829.3,5.00,0.00,29.3,28.0,00.0,38.1,31.2,16.5,0000.0,0007.89,0003.80,0003.42
2022-06-29 07:09:00,,0829.3,5.00,0.00,29.3,28.1,00.0,38.1,31.3,16.6,0000.0,0007.81,0003.76,0003.42
2022-06-29 07:10:00,,0829.2,4.99,0.00,29.4,28.2,00.0,38.1,31.3,16.6,0000.0,0007.84,0003.76,0003.41
2022-06-29 07:11:00,,0829.2,5.00,0.00,29.4,28.3,00.0,38.1,31.3,16.3,0000.0,0007.84,0003.76,0003.40
2022-06-29 07:12:00,,0829.3,5.01,0.00,29.4,28.4,00.0,38.2,31.4,16.4,0000.0,0007.82,0003.75,0003.40
2022-06-29 07:13:00,,0829.2,5.00,0.00,29.4,28.5,00.0,38.2,31.4,16.3,0000.0,0007.92,0003.78,0003.40
2022-06-29 07:14:00,,0829.2,4.99,0.00,29.5,28.5,00.0,38.2,31.4,16.3,0000.0,0007.96,0003.79,0003.39
2022-06-29 07:15:00,,0829.3,5.00,0.00,29.5,28.6,00.0,38.2,31.5,16.1,0000.0,0008.02,0003.79,0003.38
2022-06-29 07:16:00,,0829.3,5.00,0.00,29.5,28.7,00.0,38.2,31.5,16.2,0000.0,0008.16,0003.81,0003.38
2022-06-29 07:17:00,,0829.3,4.99,0.00,29.6,28.6,00.0,38.2,31.5,16.3,0000.0,0006.95,0003.80,0003.38
2022-06-29 07:18:00,,0829.2,5.01,0.00,29.5,28.0,00.0,38.2,31.3,16.3,0000.0,0006.96,0003.82,0003.37
2022-06-29 07:19:00,,0829.2,5.00,0.00,29.5,27.4,00.0,38.2,31.2,16.6,0000.0,0007.11,0003.89,0003.37
2022-06-29 07:20:00,,0829.2,5.00,0.00,29.4,27.3,00.0,38.2,31.1,16.7,0000.0,0007.22,0003.91,0003.38
2022-06-29 07:21:00,,0829.2,5.01,0.00,29.4,27.4,00.0,38.2,31.1,16.8,0000.0,0007.80,0003.93,0003.38
2022-06-29 07:22:00,,0829.2,5.00,0.00,29.4,27.5,00.0,38.1,31.2,16.8,0000.0,0007.76,0003.93,0003.39
2022-06-29 07:23:00,,0829.3,5.01,0.00,29.4,27.6,00.0,38.2,31.2,16.8,0000.0,0007.96,0003.91,0003.39
2022-06-29 07:24:00,,0829.2,5.01,0.00,29.3,27.8,00.0,38.1,31.2,16.9,0000.0,0008.12,0003.89,0003.38
2022-06-29 07:25:00,,0829.3,5.01,0.00,29.4,27.9,00.0,38.1,31.2,17.0,0000.0,0008.20,0003.91,0003.38
2022-06-29 07:26:00,,0829.3,4.99,0.00,29.4,28.0,00.0,38.2,31.3,17.0,0000.0,0008.34,0003.90,0003.38
2022-06-29 07:27:00,,0829.3,5.00,0.00,29.4,28.2,00.0,38.2,31.3,17.0,0000.0,0008.20,0003.88,0003.38
2022-06-29 07:28:00,,0829.2,5.00,0.00,29.4,28.3,00.0,38.2,31.3,16.9,0000.0,0008.30,0003.86,0003.38
2022-06-29 07:29:00,,0829.3,5.00,0.00,29.4,28.4,00.0,38.2,31.4,16.7,0000.0,0008.72,0003.84,0003.38
2022-06-29 07:30:00,,0829.3,5.00,0.00,29.5,28.4,00.0,38.2,31.4,16.5,0000.0,0008.71,0003.82,0003.39
2022-06-29 07:31:00,,0829.2,5.00,0.00,29.5,28.5,00.0,38.2,31.4,16.4,0000.0,0008.91,0003.86,0003.39
2022-06-29 07:32:00,,0829.3,5.00,0.00,29.5,28.6,00.0,38.2,31.5,16.4,0000.0,0008.98,0003.85,0003.38
2022-06-29 07:33:00,,0829.2,4.98,0.00,29.5,28.6,00.0,38.3,31.5,16.3,0000.0,0009.08,0003.88,0003.38
2022-06-29 07:34:00,,0829.2,5.00,0.00,29.6,28.7,00.0,38.3,31.5,16.1,0000.0,0009.18,0003.90,0003.37
2022-06-29 07:35:00,,0829.3,5.01,0.00,29.6,28.5,00.0,38.3,31.5,16.3,0000.0,0009.07,0003.89,0003.37
2022-06-29 07:36:00,,0829.3,5.00,0.00,29.5,27.8,00.0,38.2,31.3,16.3,0000.0,0009.02,0003.87,0003.37
2022-06-29 07:37:00,,0829.2,5.00,0.00,29.5,27.4,00.0,38.2,31.2,16.3,0000.0,0008.89,0003.87,0003.37
2022-06-29 07:38:00,,0829.2,4.99,0.00,29.4,27.4,00.0,38.2,31.1,16.3,0000.0,0008.92,0003.88,0003.37
2022-06-29 07:39:00,,0829.3,5.01,0.00,29.4,27.4,00.0,38.2,31.1,16.3,0000.0,0009.47,0003.90,0003.37
2022-06-29 07:40:00,,0829.2,5.00,0.00,29.4,27.6,00.0,38.2,31.2,16.3,0000.0,0009.16,0003.91,0003.37
2022-06-29 07:41:00,,0829.2,5.00,0.00,29.4,27.7,00.0,38.2,31.2,16.1,0000.0,0009.68,0003.93,0003.37
2022-06-29 07:42:00,,0829.2,5.01,0.00,29.4,27.8,00.0,38.2,31.2,16.2,0000.0,0009.52,0003.91,0003.37
2022-06-29 07:43:00,,0829.2,5.01,0.00,29.4,28.0,00.0,38.2,31.2,16.1,0000.0,0009.05,0003.91,0003.38
2022-06-29 07:44:00,,0829.2,5.00,0.00,29.4,28.1,00.0,38.2,31.3,16.2,0000.0,0009.05,0003.87,0003.39
2022-06-29 07:45:00,,0829.2,5.00,0.00,29.4,28.2,00.0,38.2,31.3,16.1,0000.0,0009.39,0003.87,0003.40
2022-06-29 07:46:00,,0829.2,5.01,0.00,29.4,28.3,00.0,38.2,31.3,16.0,0000.0,0009.31,0003.90,0003.41
2022-06-29 07:47:00,,0829.2,5.00,0.00,29.4,28.4,00.0,38.2,31.4,15.8,0000.0,0009.20,0003.87,0003.41
2022-06-29 07:48:00,,0829.2,5.00,0.00,29.5,28.4,00.0,38.2,31.4,15.7,0000.0,0009.13,0003.87,0003.42
2022-06-29 07:49:00,,0829.2,4.98,0.00,29.5,28.5,00.0,38.2,31.4,15.7,0000.0,0009.04,0003.87,0003.42
2022-06-29 07:50:00,,0829.2,5.01,0.00,29.5,28.6,00.0,38.2,31.5,15.6,0000.0,0008.59,0003.87,0003.43
2022-06-29 07:51:00,,0829.2,4.99,0.00,29.5,28.6,00.0,38.3,31.5,15.6,0000.0,0008.28,0003.88,0003.44
2022-06-29 07:52:00,,0829.2,4.98,0.00,29.6,28.7,00.0,38.3,31.5,15.5,0000.0,0007.60,0003.85,0003.45
2022-06-29 07:53:00,,0829.1,5.01,0.00,29.6,28.7,00.0,38.3,31.5,15.5,0000.0,0007.48,0003.82,0003.46
2022-06-29 07:54:00,,0829.1,5.01,0.00,29.6,28.2,00.0,38.3,31.4,15.6,0000.0,0007.49,0003.82,0003.46
2022-06-29 07:55:00,,0829.0,5.00,0.00,29.5,27.5,00.0,38.2,31.2,15.6,0000.0,0008.05,0003.85,0003.47
2022-06-29 07:56:00,,0829.1,5.00,0.00,29.5,27.3,00.0,38.2,31.2,15.5,0000.0,0007.51,0003.85,0003.47
2022-06-29 07:57:00,,0829.1,4.99,0.00,29.4,27.3,00.0,38.2,31.1,15.5,0000.0,0007.45,0003.85,0003.47
2022-06-29 07:58:00,,0829.1,5.00,0.00,29.4,27.4,00.0,38.2,31.1,15.6,0000.0,0007.50,0003.86,0003.47
2022-06-29 07:59:00,,0829.1,5.00,0.00,29.4,27.6,00.0,38.2,31.2,15.6,0000.0,0007.59,0003.89,0003.47
